Weather History for CYYG - November, 2012

Change the Weather History Date:

Monday, November 12, 2012

  Actual Average Record
Temperature  
Mean Temperature 46 °F -  
Max Temperature 55 °F 38 °F 60 °F (2002)
Min Temperature 37 °F 25 °F 21 °F (1999)
Degree Days  
Heating Degree Days 19    
Moisture  
Dew Point 43 °F    
Average Humidity 79    
Maximum Humidity 88    
Minimum Humidity 65    
Precipitation  
Precipitation 0.00 in 0.17 in - ()
Sea Level Pressure  
Sea Level Pressure 30.45 in    
Wind  
Wind Speed 9 mph ()    
Max Wind Speed 16 mph    
Max Gust Speed 22 mph    
Visibility 14.9 miles    
Events      
Averages and records for this station are not official NWS values.
T = Trace of Precipitation, MM = Missing Value Source: Averaged Metar Reports

Daily Weather History Graph

Daily Weather History Graph

Search for Another Location

Airport or City:

Trip Planner

Search our weather history database for the weather conditions in past years. The results will help you decide how hot, cold, wet, or windy it might be!

Date:

Astronomy

Nov. 12, 2012 Rise Set
Actual Time 7:10 AM AST 4:42 PM AST
Civil Twilight 6:37 AM AST 5:15 PM AST
Nautical Twilight 6:01 AM AST 5:51 PM AST
Astronomical Twilight 5:26 AM AST 6:26 PM AST
Moon 5:26 AM AST (11/12) 3:46 PM AST (11/12)
Length of Visible Light 10h 37m
Length of Day
9h 32m
Waning Crescent, 2% of the Moon is Illuminated
Nov 12
Waning Crescent
Nov 13
New
Nov 20
First Quarter
Nov 28
Full
Dec 6
Last Quarter

Hourly Weather History & Observations

Time (AST) Temp. Windchill Dew Point Humidity Pressure Visibility Wind Dir Wind Speed Gust Speed Precip Events Conditions
12:00 AM 39.2 °F 35.9 °F 28.4 °F 65% 30.53 in 15.0 mi SE 4.6 mph - N/A   Overcast
1:00 AM 39.2 °F 35.0 °F 30.2 °F 70% 30.51 in 15.0 mi SE 5.8 mph - N/A   Overcast
2:00 AM 43 °F - 35 °F 65% 30.52 in 15 mi South 9.2 mph - -   Overcast
2:00 AM 42.8 °F 38.0 °F 35.6 °F 76% 30.52 in 15.0 mi South 8.1 mph - N/A   Overcast
3:00 AM 44.6 °F 39.2 °F 37.4 °F 76% 30.51 in 15.0 mi South 10.4 mph - N/A   Overcast
4:00 AM 44.6 °F 39.2 °F 39.2 °F 81% 30.49 in 15.0 mi SSW 10.4 mph - N/A   Overcast
5:00 AM 44.6 °F 39.7 °F 39.2 °F 81% 30.50 in 15.0 mi South 9.2 mph - N/A   Overcast
5:27 AM 44.6 °F 39.7 °F 39.2 °F 81% 30.49 in 15.0 mi South 9.2 mph - N/A   Overcast
6:00 AM 44.6 °F 40.7 °F 41.0 °F 87% 30.49 in 15.0 mi South 6.9 mph - N/A   Overcast
7:00 AM 46.4 °F 41.9 °F 41.0 °F 81% 30.50 in 15.0 mi South 9.2 mph - N/A   Overcast
8:00 AM 47 °F - 43 °F 82% 30.51 in 15 mi South 9.2 mph - -   Overcast
8:00 AM 46.4 °F 41.9 °F 42.8 °F 87% 30.51 in 15.0 mi South 9.2 mph - N/A   Overcast
9:00 AM 48.2 °F - 44.6 °F 87% 30.51 in 15.0 mi South 12.7 mph - N/A   Overcast
10:00 AM 50.0 °F - 46.4 °F 87% 30.48 in 15.0 mi South 13.8 mph - N/A   Mostly Cloudy
11:00 AM 51.8 °F - 46.4 °F 82% 30.47 in 15.0 mi South 13.8 mph - N/A   Mostly Cloudy
12:00 PM 51.8 °F - 48.2 °F 88% 30.44 in 15.0 mi South 15.0 mph 21.9 mph N/A   Mostly Cloudy
12:06 PM 51.8 °F - 48.2 °F 88% 30.44 in 15.0 mi South 13.8 mph 21.9 mph N/A   Mostly Cloudy
1:00 PM 53.6 °F - 48.2 °F 82% 30.42 in 15.0 mi South 15.0 mph - N/A   Scattered Clouds
2:00 PM 55 °F - 48 °F 71% 30.41 in 15 mi South 16.1 mph - -   Clear
2:00 PM 55.4 °F - 48.2 °F 77% 30.40 in 15.0 mi South 16.1 mph - N/A   Scattered Clouds
3:00 PM 55.4 °F - 48.2 °F 77% 30.40 in 15.0 mi South 13.8 mph - N/A   Scattered Clouds
4:00 PM 55.4 °F - 48.2 °F 77% 30.39 in 15.0 mi South 10.4 mph - N/A   Scattered Clouds
5:00 PM 51.8 °F - 46.4 °F 82% 30.39 in 15.0 mi SSW 8.1 mph - N/A   Scattered Clouds
6:00 PM 53.6 °F - 44.6 °F 72% 30.39 in 15.0 mi South 12.7 mph - N/A   Scattered Clouds
7:00 PM 55.4 °F - 46.4 °F 72% 30.39 in 15.0 mi South 12.7 mph - N/A   Scattered Clouds
8:00 PM 53 °F - 47 °F 72% 30.40 in 15 mi South 10.4 mph - -   Clear
8:00 PM 51.8 °F - 46.4 °F 82% 30.39 in 15.0 mi South 10.4 mph - N/A   Partly Cloudy
9:00 PM 53.6 °F - 46.4 °F 77% 30.38 in 15.0 mi South 12.7 mph - N/A   Partly Cloudy
10:00 PM 51.8 °F - 48.2 °F 88% 30.37 in 15.0 mi South 13.8 mph 21.9 mph N/A   Partly Cloudy
11:00 PM 51.8 °F - 48.2 °F 88% 30.36 in 12.0 mi South 13.8 mph - N/A   Partly Cloudy